Photometre #854[NE_1.6_Dp] OHP_OBSERVATOIRE AOT

File : 20200925_854.hum

25/09/2020,06:18:36,TEMP=8.1,BA=5.04,STAT.A,ExtBa=12.50
25/09/2020,06:22:05,TEMP=8.2,BA=4.96,STAT.A,ExtBa=12.40
25/09/2020,06:26:17,TEMP=8.3,BA=4.96,STAT.A,ExtBa=12.40
25/09/2020,06:31:16,TEMP=8.3,BA=5.00,STAT.A,ExtBa=12.40
25/09/2020,06:37:19,TEMP=8.4,BA=5.00,STAT.A,ExtBa=12.40
25/09/2020,06:44:45,TEMP=8.5,BA=5.00,STAT.A,ExtBa=12.40
25/09/2020,06:54:10,TEMP=8.4,BA=5.00,STAT.B,ExtBa=12.40
25/09/2020,06:58:40,TEMP=8.5,BA=5.00,STAT.A,ExtBa=12.40
25/09/2020,07:03:44,TEMP=8.5,BA=4.96,STAT.A,ExtBa=12.40
25/09/2020,07:09:26,TEMP=8.5,BA=4.96,STAT.A,ExtBa=12.40
25/09/2020,07:15:56,TEMP=8.6,BA=4.92,STAT.A,ExtBa=12.40
25/09/2020,07:23:25,TEMP=9.6,BA=5.00,STAT.C,ExtBa=12.40
25/09/2020,07:47:17,TEMP=11.0,BA=4.92,STAT.A,ExtBa=12.30
25/09/2020,07:49:27,TEMP=11.0,BA=4.92,STAT.A,ExtBa=12.30
25/09/2020,07:54:53,TEMP=10.8,BA=4.88,STAT.A,ExtBa=12.40
25/09/2020,08:10:16,TEMP=11.1,BA=4.96,STAT.A,ExtBa=12.50
25/09/2020,08:29:14,TEMP=11.5,BA=5.00,STAT.F,ExtBa=12.50
25/09/2020,08:53:49,TEMP=14.1,BA=4.88,STAT.D,ExtBa=12.30
25/09/2020,08:59:13,TEMP=13.7,BA=4.88,STAT.D,ExtBa=12.40
25/09/2020,09:14:13,TEMP=14.0,BA=4.96,STAT.D,ExtBa=12.50
25/09/2020,09:29:15,TEMP=14.3,BA=4.96,STAT.F,ExtBa=12.50
25/09/2020,09:54:27,TEMP=14.7,BA=4.88,STAT.D,ExtBa=12.40
25/09/2020,09:59:13,TEMP=14.4,BA=4.88,STAT.D,ExtBa=12.40
25/09/2020,10:14:13,TEMP=14.5,BA=4.96,STAT.D,ExtBa=12.50
25/09/2020,10:29:15,TEMP=14.7,BA=4.96,STAT.F,ExtBa=12.50
25/09/2020,10:52:53,TEMP=16.1,BA=4.88,STAT.D,ExtBa=12.30
25/09/2020,10:59:13,TEMP=15.7,BA=4.88,STAT.D,ExtBa=12.40
25/09/2020,11:14:13,TEMP=16.1,BA=4.96,STAT.D,ExtBa=12.50
25/09/2020,11:29:15,TEMP=16.4,BA=4.96,STAT.F,ExtBa=12.50
25/09/2020,11:44:13,TEMP=16.2,BA=4.96,STAT.D,ExtBa=12.50
25/09/2020,11:59:13,TEMP=15.3,BA=4.96,STAT.D,ExtBa=12.50
25/09/2020,12:13:50,TEMP=15.5,BA=4.96,STAT.h
25/09/2020,12:29:15,TEMP=12.7,BA=4.96,STAT.F,ExtBa=12.50
25/09/2020,12:44:13,TEMP=14.6,BA=4.92,STAT.D,ExtBa=12.40
25/09/2020,12:59:13,TEMP=13.8,BA=4.96,STAT.D,ExtBa=12.50